Accueil
METAR-TAF:

METAR-TAF

Aéroports :

Buckland, Alaska, États-Unis

latitude: 65-58-56N, longitude: 161-09-07W, altitude: 7 m

Observation

Le bulletin a été fait il y a 54 minutes, à 05:56 UTC
Vent 10 kt de nord
Température 21°C
Humidité 43%
Pression 1007 hPa
Visibilité: 16.1 km
Ciel clair

METAR: PABL 120556Z AUTO 35010KT 10SM CLR 21/08 A2974 RMK AO2 SLP073 T02060078 10211 20167 56006

Heure: 22:50 (06:50 UTC)


TAF: absent

Observations et prévisions météorologiques de plus de 4000 aéroports (messages METAR et TAF).

Les stations disponibles sont représentées par des disques jaunes et rouges sur la carte.

Passer la souris dessus pour voir le nom de la station.

Cliquer dessus pour voir les observations et prévisions météorologiques.

Pour changer de carte: cliquez sur les boutons verts avec une croix noire pour zoomer, sur le bouton vert avec un tiret pour effectuer un zoom arrière, ou sur les flèches vertes pour les cartes adjacentes.


METAR-TAF: